Regional Weather Roundup
Issued by NWS

Home | Current Version | Previous Version | Text Only | Print | Product List | Glossary Off
Versions: 1 2 3 4 5 6 7 8 9 10 11 12 13 14 15 16 17 18 19 20 21 22 23 24 25 26 27 28 29 30 31 32 33 34 35 36 37 38 39 40 41 42 43 44 45 46 47 48 49 50

000
ASUS43 KFSD 100302
RWRSD

WEATHER ROUNDUP FOR SOUTH DAKOTA
NATIONAL WEATHER SERVICE SIOUX FALLS SD
1000 PM CDT WED JUL 09 2014

NOTE: "FAIR" INDICATES FEW OR NO CLOUDS BELOW 12,000 FEET WITH NO
SIGNIFICANT WEATHER AND/OR OBSTRUCTIONS TO VISIBILITY.


SDZ001>005-009-010-012>017-100400-
NORTHWEST AND NORTH CENTRAL SOUTH DAKOTA

CITY           SKY/WX    TMP DP  RH WIND       PRES   REMARKS
BUFFALO          N/A     68  56  65 SE10      29.88S
FAITH            N/A     68  56  65 SE13      29.96R
MOBRIDGE       CLEAR     69  60  73 SE9       29.94R HAZE
$$

SDZ012>016-024>037-041>051-057-063-072>074-100400-
SOUTHWEST AND SOUTH CENTRAL SOUTH DAKOTA

CITY           SKY/WX    TMP DP  RH WIND       PRES   REMARKS
RAPID CTY ARPT CLEAR     65  56  72 E8        29.97R
PIERRE         CLEAR     67  57  70 E6        29.94R
CUSTER         PTCLDY    62  55  77 E5        30.09R
ELLSWORTH AFB  CLEAR     67  57  71 SE10      29.97S
PHILIP         CLEAR     63  56  78 E7        29.95R
PINE RIDGE     CLEAR     67  59  75 E13       29.96R
WINNER         MOCLDY    67  58  72 SE7       29.97R
$$

SDZ004>011-016>023-039-040-100400-
NORTHEAST SOUTH DAKOTA

CITY           SKY/WX    TMP DP  RH WIND       PRES   REMARKS
ABERDEEN       CLEAR     64  58  80 E7        29.98R
WATERTOWN      CLEAR     69  55  60 E5        30.01R
SISSETON         N/A     66  58  75 CALM      29.98R
$$

SDZ017-020-022-023-036>040-048>070-100400-
SOUTHEAST SOUTH DAKOTA

CITY           SKY/WX    TMP DP  RH WIND       PRES   REMARKS
SIOUX FALLS    PTCLDY    70  58  65 E3        29.99R
HURON          CLEAR     69  59  70 E7        29.96R
CHAMBERLAIN    CLEAR     64  57  77 S7        29.97R
MITCHELL       CLEAR     72  60  66 S5        29.97R
YANKTON        CLEAR     66  61  82 SE5       29.99R
$$

ABBREVIATIONS USED IN REMARKS
   TC - TEMPERATURE IN CELSIUS
  WCI - WIND CHILL INDEX
   HX - HEAT INDEX
  VSB - VISIBILITY




USA.gov is the U.S. government's official web portal to all federal, state and local government web resources and services.